| time (UTC) | temp F | wind direction | speed MPH | gust MPH | rain 1hr in | rain 24hr in | rain mn in | humidity % | barometer mb |
| 20260903163005 | 86 | 77 | 2.0 | 7.0 | 0.00 | 0.00 | 0.00 | 76 | 1013.3 |
| 20260903161006 | 90 | 17 | 0.0 | 3.0 | 0.00 | 0.00 | 0.00 | 68 | 1013.3 |
| 20260903160005 | 89 | 178 | 1.0 | 3.0 | 0.00 | 0.00 | 0.00 | 68 | 1013.5 |
| 20260903155005 | 89 | 232 | 0.0 | 3.0 | 0.00 | 0.00 | 0.00 | 71 | 1013.5 |
| 20260903152006 | 88 | 225 | 2.0 | 3.0 | 0.00 | 0.00 | 0.00 | 71 | 1013.8 |
| 20260903151005 | 88 | 213 | 2.0 | 5.0 | 0.00 | 0.00 | 0.00 | 70 | 1013.8 |
| 20260903150005 | 87 | 223 | 2.0 | 7.0 | 0.00 | 0.00 | 0.00 | 73 | 1013.7 |
| 20260903145005 | 87 | 128 | 2.0 | 7.0 | 0.00 | 0.00 | 0.00 | 74 | 1013.7 |
| 20260903143006 | 86 | 176 | 3.0 | 7.0 | 0.00 | 0.00 | 0.00 | 75 | 1013.5 |
| 20260903142006 | 85 | 233 | 2.0 | 7.0 | 0.00 | 0.00 | 0.00 | 76 | 1013.5 |
| 20260903141005 | 86 | 222 | 2.0 | 3.0 | 0.00 | 0.00 | 0.00 | 74 | 1013.5 |
| 20260903140006 | 86 | 189 | 1.0 | 3.0 | 0.00 | 0.00 | 0.00 | 75 | 1013.3 |
| 20260903135007 | 85 | 238 | 1.0 | 5.0 | 0.00 | 0.00 | 0.00 | 75 | 1013.4 |
| 20260903133005 | 85 | 196 | 1.0 | 3.0 | 0.00 | 0.00 | 0.00 | 79 | 1013.3 |
| 20260903131006 | 81 | 182 | 2.0 | 3.0 | 0.00 | 0.00 | 0.00 | 83 | 1013.1 |
| 20260903130006 | 81 | 210 | 2.0 | 3.0 | 0.00 | 0.00 | 0.00 | 83 | 1013.2 |
| 20260903125005 | 81 | 168 | 1.0 | 2.0 | 0.00 | 0.00 | 0.00 | 82 | 1013.2 |
| 20260903124007 | 80 | 121 | 1.0 | 2.0 | 0.00 | 0.00 | 0.00 | 68 | 1013.1 |
| 20260903122005 | 77 | 138 | 0.0 | 1.0 | 0.00 | 0.00 | 0.00 | 66 | 1013.1 |
| 20260903121005 | 77 | 138 | 0.0 | 1.0 | 0.00 | 0.00 | 0.00 | 66 | 1013.1 |
| 20260903120005 | 76 | 138 | 0.0 | 0.0 | 0.00 | 0.00 | 0.00 | 67 | 1013.1 |
| 20260903115007 | 76 | 138 | 0.0 | 0.0 | 0.00 | 0.00 | 0.00 | 67 | 1013.0 |
| 20260903114005 | 76 | 138 | 0.0 | 2.0 | 0.00 | 0.00 | 0.00 | 68 | 1012.9 |
| 20260903113006 | 75 | 177 | 0.0 | 1.0 | 0.00 | 0.00 | 0.00 | 68 | 1012.7 |
| 20260903112006 | 75 | 155 | 0.0 | 1.0 | 0.00 | 0.00 | 0.00 | 69 | 1012.2 |
| 20260903111006 | 75 | 184 | 0.0 | 2.0 | 0.00 | 0.00 | 0.00 | 69 | 1012.0 |
| 20260903110005 | 76 | 184 | 0.0 | 0.0 | 0.00 | 0.00 | 0.00 | 69 | 1012.0 |
| 20260903105005 | 76 | 184 | 0.0 | 1.0 | 0.00 | 0.00 | 0.00 | 69 | 1011.8 |
| 20260903103005 | 76 | 184 | 0.0 | 0.0 | 0.00 | 0.00 | 0.00 | 69 | 1011.6 |
| 20260903102005 | 76 | 184 | 0.0 | 0.0 | 0.00 | 0.00 | 0.00 | 68 | 1011.6 |
| 20260903101007 | 76 | 184 | 0.0 | 0.0 | 0.00 | 0.00 | 0.00 | 68 | 1011.5 |
| 20260903093006 | 77 | 184 | 0.0 | 0.0 | 0.00 | 0.00 | 0.00 | 68 | 1011.4 |
| 20260903092005 | 77 | 184 | 0.0 | 1.0 | 0.00 | 0.00 | 0.00 | 68 | 1011.5 |
| 20260903091005 | 77 | 184 | 0.0 | 2.0 | 0.00 | 0.00 | 0.00 | 68 | 1011.3 |
| 20260903090005 | 77 | 221 | 1.0 | 2.0 | 0.00 | 0.00 | 0.00 | 67 | 1011.3 |
| 20260903085005 | 77 | 148 | 1.0 | 2.0 | 0.00 | 0.00 | 0.00 | 68 | 1011.3 |
| 20260903084007 | 77 | 202 | 0.0 | 1.0 | 0.00 | 0.00 | 0.00 | 68 | 1011.3 |
| 20260903083006 | 77 | 202 | 1.0 | 2.0 | 0.00 | 0.00 | 0.00 | 69 | 1011.3 |
| 20260903082005 | 77 | 101 | 0.0 | 0.0 | 0.00 | 0.00 | 0.00 | 69 | 1011.3 |
| 20260903080006 | 77 | 101 | 0.0 | 0.0 | 0.00 | 0.00 | 0.00 | 70 | 1011.3 |
| 20260903075007 | 77 | 101 | 0.0 | 0.0 | 0.00 | 0.00 | 0.00 | 69 | 1011.1 |
| 20260903074006 | 77 | 101 | 0.0 | 1.0 | 0.00 | 0.00 | 0.00 | 69 | 1011.2 |
| 20260903073005 | 77 | 101 | 0.0 | 0.0 | 0.00 | 0.00 | 0.00 | 69 | 1011.1 |
| 20260903072007 | 77 | 101 | 0.0 | 2.0 | 0.00 | 0.00 | 0.00 | 69 | 1011.0 |
| 20260903071007 | 77 | 155 | 1.0 | 1.0 | 0.00 | 0.00 | 0.00 | 68 | 1011.1 |
| 20260903070005 | 77 | 71 | 0.0 | 0.0 | 0.00 | 0.00 | 0.00 | 69 | 1011.2 |
| 20260903065007 | 77 | 71 | 0.0 | 0.0 | 0.00 | 0.00 | 0.00 | 69 | 1011.3 |
| 20260903064007 | 77 | 71 | 0.0 | 0.0 | 0.00 | 0.00 | 0.00 | 70 | 1011.4 |
| 20260903063005 | 77 | 71 | 0.0 | 0.0 | 0.00 | 0.00 | 0.00 | 70 | 1011.5 |
| 20260903062005 | 77 | 71 | 0.0 | 0.0 | 0.00 | 0.00 | 0.00 | 71 | 1011.7 |
| 20260903061006 | 77 | 71 | 0.0 | 1.0 | 0.00 | 0.00 | 0.00 | 71 | 1011.8 |
| 20260903060005 | 77 | 71 | 1.0 | 1.0 | 0.00 | 0.00 | 0.00 | 71 | 1012.0 |
| 20260903055005 | 77 | 71 | 0.0 | 1.0 | 0.00 | 0.00 | 0.00 | 71 | 1012.1 |
| 20260903054006 | 77 | 71 | 0.0 | 0.0 | 0.00 | 0.00 | 0.00 | 71 | 1012.2 |
| 20260903053006 | 78 | 71 | 0.0 | 1.0 | 0.00 | 0.00 | 0.00 | 72 | 1012.3 |
| 20260903051005 | 78 | 71 | 0.0 | 1.0 | 0.00 | 0.00 | 0.00 | 72 | 1012.4 |
| 20260903050006 | 78 | 71 | 0.0 | 1.0 | 0.00 | 0.00 | 0.00 | 72 | 1012.6 |
| 20260903045006 | 78 | 71 | 0.0 | 2.0 | 0.00 | 0.00 | 0.00 | 73 | 1012.6 |
| 20260903044006 | 78 | 71 | 0.0 | 1.0 | 0.00 | 0.00 | 0.00 | 73 | 1012.8 |
| 20260903043007 | 78 | 71 | 0.0 | 2.0 | 0.00 | 0.00 | 0.00 | 72 | 1013.0 |
| 20260903042005 | 78 | 115 | 1.0 | 3.0 | 0.00 | 0.00 | 0.00 | 73 | 1013.1 |
| 20260903041005 | 78 | 110 | 1.0 | 2.0 | 0.00 | 0.00 | 0.00 | 75 | 1013.3 |
| 20260903040008 | 78 | 205 | 0.0 | 1.0 | 0.00 | 0.00 | 0.00 | 76 | 1013.3 |
| 20260903035005 | 78 | 205 | 0.0 | 0.0 | 0.00 | 0.00 | 0.00 | 76 | 1013.4 |
| 20260903034005 | 78 | 205 | 0.0 | 1.0 | 0.00 | 0.00 | 0.00 | 77 | 1013.4 |
| 20260903032006 | 79 | 205 | 1.0 | 1.0 | 0.00 | 0.00 | 0.00 | 77 | 1013.5 |
| 20260903031005 | 79 | 205 | 0.0 | 1.0 | 0.00 | 0.00 | 0.00 | 79 | 1013.3 |
| 20260903025006 | 79 | 65 | 0.0 | 0.0 | 0.00 | 0.00 | 0.00 | 81 | 1013.2 |
| 20260903023006 | 79 | 65 | 0.0 | 2.0 | 0.00 | 0.00 | 0.00 | 80 | 1013.1 |
| 20260903022005 | 79 | 82 | 1.0 | 2.0 | 0.00 | 0.00 | 0.00 | 81 | 1013.1 |
| 20260903021005 | 79 | 128 | 0.0 | 2.0 | 0.00 | 0.00 | 0.00 | 81 | 1013.1 |
| 20260903020005 | 79 | 128 | 0.0 | 2.0 | 0.00 | 0.00 | 0.00 | 82 | 1013.1 |
| 20260903015006 | 79 | 74 | 0.0 | 0.0 | 0.00 | 0.00 | 0.00 | 83 | 1013.1 |
| 20260903014005 | 79 | 74 | 0.0 | 0.0 | 0.00 | 0.00 | 0.00 | 83 | 1013.0 |
| 20260903012007 | 79 | 74 | 0.0 | 1.0 | 0.00 | 0.00 | 0.00 | 83 | 1012.8 |
| 20260903011006 | 80 | 74 | 0.0 | 2.0 | 0.00 | 0.00 | 0.00 | 83 | 1012.8 |
| 20260903010005 | 80 | 74 | 1.0 | 3.0 | 0.00 | 0.00 | 0.00 | 83 | 1012.6 |
| 20260903004007 | 80 | 91 | 2.0 | 3.0 | 0.00 | 0.00 | 0.00 | 84 | 1012.4 |
| 20260903003006 | 80 | 86 | 2.0 | 3.0 | 0.00 | 0.00 | 0.00 | 84 | 1012.4 |
| 20260903002005 | 80 | 83 | 1.0 | 3.0 | 0.00 | 0.00 | 0.00 | 84 | 1012.2 |
| 20260903001005 | 81 | 78 | 1.0 | 3.0 | 0.00 | 0.00 | 0.00 | 84 | 1012.1 |
| 20260902234006 | 82 | 92 | 2.0 | 3.0 | 0.00 | 0.00 | 0.00 | 83 | 1012.2 |
| 20260902233005 | 82 | 81 | 2.0 | 5.0 | 0.00 | 0.00 | 0.00 | 83 | 1012.0 |
| 20260902232007 | 82 | 96 | 2.0 | 5.0 | 0.00 | 0.00 | 0.00 | 82 | 1011.9 |
| 20260902230005 | 83 | 83 | 3.0 | 7.0 | 0.00 | 0.00 | 0.00 | 81 | 1011.7 |
| 20260902225006 | 83 | 91 | 2.0 | 7.0 | 0.00 | 0.00 | 0.00 | 81 | 1011.7 |
| 20260902224007 | 83 | 86 | 2.0 | 7.0 | 0.00 | 0.00 | 0.00 | 80 | 1011.6 |
| 20260902223005 | 83 | 74 | 4.0 | 7.0 | 0.00 | 0.00 | 0.00 | 79 | 1011.5 |
| 20260902222005 | 84 | 63 | 2.0 | 8.0 | 0.00 | 0.00 | 0.00 | 79 | 1011.6 |
| 20260902220006 | 84 | 61 | 4.0 | 7.0 | 0.00 | 0.00 | 0.00 | 78 | 1011.6 |
| 20260902215005 | 85 | 69 | 2.0 | 6.0 | 0.00 | 0.00 | 0.00 | 76 | 1012.0 |
| 20260902214006 | 85 | 51 | 3.0 | 7.0 | 0.00 | 0.00 | 0.00 | 76 | 1012.0 |
| 20260902213005 | 84 | 60 | 3.0 | 7.0 | 0.00 | 0.00 | 0.00 | 76 | 1011.9 |
| 20260902212006 | 85 | 99 | 5.0 | 7.0 | 0.00 | 0.00 | 0.00 | 76 | 1011.9 |
| 20260902211006 | 85 | 74 | 3.0 | 7.0 | 0.00 | 0.00 | 0.00 | 76 | 1011.7 |
| 20260902210005 | 85 | 94 | 5.0 | 6.0 | 0.00 | 0.00 | 0.00 | 75 | 1011.6 |
| 20260902205006 | 85 | 103 | 4.0 | 7.0 | 0.00 | 0.00 | 0.00 | 77 | 1011.6 |
| 20260902203005 | 84 | 77 | 4.0 | 7.0 | 0.00 | 0.00 | 0.00 | 78 | 1012.0 |
| 20260902202006 | 84 | 88 | 2.0 | 8.0 | 0.00 | 0.00 | 0.00 | 79 | 1011.9 |
| 20260902201006 | 84 | 93 | 4.0 | 10.0 | 0.00 | 0.00 | 0.00 | 79 | 1012.1 |
| 20260902200005 | 84 | 91 | 3.0 | 7.0 | 0.00 | 0.00 | 0.00 | 79 | 1012.1 |
| 20260902195005 | 84 | 91 | 6.0 | 10.0 | 0.00 | 0.00 | 0.00 | 80 | 1012.2 |
| 20260902194007 | 84 | 76 | 4.0 | 9.0 | 0.00 | 0.00 | 0.00 | 80 | 1012.3 |
| 20260902193006 | 84 | 74 | 5.0 | 8.0 | 0.00 | 0.00 | 0.00 | 80 | 1012.4 |
| 20260902192005 | 84 | 73 | 4.0 | 10.0 | 0.00 | 0.00 | 0.00 | 80 | 1012.5 |
| 20260902190005 | 84 | 90 | 3.0 | 7.0 | 0.00 | 0.00 | 0.00 | 81 | 1012.7 |
| 20260902184006 | 85 | 87 | 3.0 | 9.0 | 0.00 | 0.00 | 0.00 | 80 | 1012.9 |
| 20260902183005 | 85 | 83 | 5.0 | 9.0 | 0.00 | 0.00 | 0.00 | 78 | 1012.8 |
| 20260902182005 | 85 | 62 | 3.0 | 7.0 | 0.00 | 0.00 | 0.00 | 77 | 1013.0 |
| 20260902181005 | 85 | 91 | 5.0 | 7.0 | 0.00 | 0.00 | 0.00 | 76 | 1013.0 |
| 20260902180007 | 85 | 78 | 3.0 | 7.0 | 0.00 | 0.00 | 0.00 | 77 | 1013.1 |
| 20260902175006 | 85 | 100 | 4.0 | 6.0 | 0.00 | 0.00 | 0.00 | 77 | 1013.1 |
| 20260902174006 | 86 | 91 | 3.0 | 7.0 | 0.00 | 0.00 | 0.00 | 78 | 1013.3 |
| 20260902173006 | 86 | 72 | 3.0 | 7.0 | 0.00 | 0.00 | 0.00 | 78 | 1013.2 |
| 20260902172006 | 87 | 104 | 3.0 | 7.0 | 0.00 | 0.00 | 0.00 | 77 | 1013.4 |
| 20260902171006 | 87 | 76 | 3.0 | 7.0 | 0.00 | 0.00 | 0.00 | 74 | 1013.6 |
| 20260902170005 | 87 | 110 | 2.0 | 6.0 | 0.00 | 0.00 | 0.00 | 73 | 1013.5 |
| 20260902165005 | 87 | 91 | 3.0 | 6.0 | 0.00 | 0.00 | 0.00 | 74 | 1013.8 |
| 20260902164005 | 88 | 83 | 3.0 | 6.0 | 0.00 | 0.00 | 0.00 | 71 | 1014.0 |